Weather History for Thermal, CA

Change the Weather History Date:

Monday, February 18, 2013

  Actual Average Record
Temperature  
Mean Temperature 57 °F 59 °F  
Max Temperature 76 °F 75 °F 93 °F (1981)
Min Temperature 38 °F 42 °F 30 °F (1956)
Degree Days  
Heating Degree Days 8 7  
Month to date heating degree days 146 147  
Since 1 July heating degree days 973 1007  
Cooling Degree Days 0 0  
Month to date cooling degree days 0 0  
Year to date cooling degree days 0 2  
Growing Degree Days 7 (Base 50)    
Moisture  
Dew Point 33 °F    
Average Humidity 43    
Maximum Humidity 70    
Minimum Humidity 16    
Precipitation  
Precipitation 0.00 in 0.03 in 0.73 in (2011)
Month to date precipitation T 0.41  
Year to date precipitation 0.37 1.08  
Since 1 July precipitation 2.55 2.46  
Snow  
Snow 0.00 in - - ()
Month to date snowfall 0.0  
Year to date snowfall 0.0  
Since 1 July snowfall 0.0  
Snow Depth 0.00 in    
Sea Level Pressure  
Sea Level Pressure 29.90 in    
Wind  
Wind Speed 5 mph (NW)    
Max Wind Speed 13 mph    
Max Gust Speed 17 mph    
Visibility 10 miles    
Events      
T = Trace of Precipitation, MM = Missing Value Source: NWS Daily Summary

Daily Weather History Graph

Daily Weather History Graph

Search for Another Location

Airport:

Trip Planner

Search our weather history database for the weather conditions in past years. The results will help you decide how hot, cold, wet, or windy it might be!

Date:

Astronomy

Feb. 18, 2013 Rise Set
Actual Time 6:25 AM PST 5:32 PM PST
Civil Twilight 6:00 AM PST 5:57 PM PST
Nautical Twilight 5:30 AM PST 6:26 PM PST
Astronomical Twilight 5:02 AM PST 6:55 PM PST
Moon 11:29 AM PST (2/18) 1:01 AM PST (2/18)
Length of Visible Light 11h 57m
Length of Day
11h 06m
First Quarter, 59% of the Moon is Illuminated
Feb 18
First Quarter
Feb 25
Full
Mar 4
Last Quarter
Mar 11
New
Mar 19
First Quarter

Hourly Weather History & Observations

Time (PST) Temp. Windchill Dew Point Humidity Pressure Visibility Wind Dir Wind Speed Gust Speed Precip Events Conditions
12:52 AM 61.0 °F - 36.0 °F 39% 29.90 in 10.0 mi NW 10.4 mph - N/A   Clear
1:52 AM 60.1 °F - 35.1 °F 39% 29.90 in 10.0 mi WNW 8.1 mph - N/A   Clear
2:52 AM 57.9 °F - 34.0 °F 41% 29.90 in 10.0 mi NNW 5.8 mph - N/A   Clear
3:52 AM 44.1 °F 42.5 °F 32.0 °F 63% 29.91 in 10.0 mi SSE 3.5 mph - N/A   Clear
4:52 AM 39.9 °F - 28.9 °F 65% 29.93 in 10.0 mi Calm Calm - N/A   Clear
6:52 AM 41.0 °F 39.0 °F 32.0 °F 70% 29.98 in 10.0 mi North 3.5 mph - N/A   Clear
7:52 AM 52.0 °F - 36.0 °F 54% 30.00 in 10.0 mi Calm Calm - N/A   Clear
8:52 AM 61.0 °F - 39.0 °F 44% 30.00 in 10.0 mi Calm Calm - N/A   Clear
9:52 AM 64.0 °F - 36.0 °F 35% 29.99 in 10.0 mi ESE 4.6 mph - N/A   Clear
10:52 AM 69.1 °F - 34.0 °F 27% 29.98 in 10.0 mi NNE 3.5 mph - N/A   Clear
11:52 AM 72.0 °F - 32.0 °F 23% 29.95 in 10.0 mi Variable 5.8 mph - N/A   Clear
12:52 PM 75.9 °F - 27.0 °F 16% 29.91 in 10.0 mi SSE 8.1 mph - N/A   Clear
1:52 PM 75.0 °F - 28.9 °F 18% 29.89 in 10.0 mi South 9.2 mph 17.3 mph N/A   Clear
2:52 PM 75.0 °F - 27.0 °F 17% 29.87 in 10.0 mi SSE 11.5 mph - N/A   Clear
3:52 PM 73.9 °F - 27.0 °F 18% 29.85 in 10.0 mi South 8.1 mph - N/A   Clear
5:52 PM 61.0 °F - 28.0 °F 29% 29.83 in 10.0 mi Calm Calm - N/A   Clear
6:52 PM 54.0 °F - 27.0 °F 35% 29.84 in 10.0 mi WSW 3.5 mph - N/A   Clear
7:52 PM 54.0 °F - 30.9 °F 41% 29.85 in 10.0 mi NW 4.6 mph - N/A   Clear
8:52 PM 54.0 °F - 30.0 °F 40% 29.86 in 10.0 mi NNW 4.6 mph - N/A   Clear
9:52 PM 55.9 °F - 37.9 °F 51% 29.86 in 10.0 mi North 4.6 mph - N/A   Clear
10:52 PM 59.0 °F - 41.0 °F 51% 29.85 in 10.0 mi NNW 8.1 mph - N/A   Clear
11:52 PM 52.0 °F - 39.0 °F 61% 29.84 in 10.0 mi Calm Calm - N/A   Clear